Вернуться в каталог

FENGYUN 1C DEB

АктивенPO
NORAD 31670·DEBRIS·🇨🇳 China

Запущен May 10, 1999 с Taiyuan Satellite Launch Center

Loading…

Ближайшие Пролёты (ближайшие 24 часа)

TLE

УстаревающийSource: Space-Track

Эпоха: Sep 4, 2026, 19:28 UTC

1 31670U 99025CCC 26247.81140405  .00001071  00000-0  97126-3 0  9993
2 31670  98.4163  95.8068 0244517 305.4390  52.4152 13.72903166659628

Отслеживайте FENGYUN 1C DEB в реальном времени с AllMySat

Download on the App Store